Lid_Strength_Index
4 4 3 3 3 3 3 3 3 3 3 3 2 2 2 2 2 3 6 4 2 -1 -1 0 1 1 1 2 2 3 7 8 7 7 6 4 5 4 5 5 4 3 3 2 1
4 4 4 4 4 4 4 4 4 4 3 3 4 3 2 2 4 6 2 -0 -2 -1 1 2 3 2 3 3 3 5 7 7 5 5 5 4 4 4 6 5 5 5 3 2 2
5 5 4 4 4 4 4 4 4 4 4 4 4 3 3 2 6 6 -2 -2 -1 -1 1 1 2 3 4 4 4 5 8 6 5 4 4 4 5 4 5 5 4 4 3 3 2
5 5 5 5 5 5 5 5 5 4 4 4 4 4 3 4 11 3 -3 -2 -1 -0 2 2 3 4 5 6 4 7 6 5 4 4 4 5 4 5 5 4 4 3 3 3 2
4 5 5 4 5 5 5 5 5 5 5 4 4 3 5 8 9 3 -3 -1 -0 2 4 4 5 5 6 5 5 6 6 5 4 5 5 5 6 5 4 4 3 3 3 2 2
4 4 4 4 5 5 4 4 4 4 3 3 3 3 6 11 5 5 4 3 4 3 4 4 4 3 4 5 6 5 5 5 5 5 5 6 6 6 4 3 3 3 3 2 2
3 4 4 4 4 4 4 4 4 4 4 3 3 3 7 8 5 4 3 3 3 4 4 4 3 4 4 5 4 5 7 6 6 5 6 6 7 6 4 4 3 3 3 2 2
3 3 3 4 3 4 4 4 4 4 4 3 2 3 8 4 4 5 4 3 2 3 3 3 2 3 4 3 6 7 7 8 5 6 6 6 9 5 4 4 4 4 3 3 3
3 3 3 3 3 3 3 4 4 4 3 2 2 3 7 3 5 4 4 6 5 4 3 2 3 4 4 6 7 7 10 8 7 5 6 7 7 5 4 4 4 4 3 3 3
3 3 3 3 4 3 4 4 4 4 1 1 1 5 5 6 4 3 3 4 6 6 4 4 4 6 6 7 11 9 9 8 8 6 6 7 7 5 4 4 4 4 3 3 3
4 3 3 4 4 4 5 5 6 5 3 6 6 7 6 4 3 3 2 4 4 4 7 5 7 8 7 6 6 7 8 9 7 6 7 7 7 6 4 4 4 4 4 4 3
4 4 3 3 4 4 5 8 7 7 9 5 5 5 4 4 6 5 2 6 6 7 5 6 8 6 5 6 6 7 8 8 7 6 7 7 7 5 5 4 4 4 4 4 3
5 4 4 4 4 5 6 7 5 5 9 8 6 6 6 5 6 5 3 5 6 6 6 8 6 5 6 7 8 7 8 8 9 7 6 7 8 7 5 4 4 4 3 3 3
5 5 5 4 6 5 7 6 5 5 11 10 9 7 6 6 7 4 3 5 6 7 6 6 5 6 7 7 7 9 6 7 8 8 11 7 12 8 6 5 5 4 4 4 3
5 5 5 5 6 7 6 4 5 5 15 8 7 4 5 7 7 7 3 4 7 6 6 7 6 7 8 7 6 8 6 7 7 8 9 9 11 8 6 7 6 4 4 4 3
5 5 5 6 6 5 5 5 5 10 15 10 7 8 8 7 7 6 6 4 4 6 5 6 4 5 6 5 5 5 7 7 7 8 12 9 10 9 7 7 6 5 5 4 4
5 5 5 6 9 4 4 7 12 14 9 10 9 8 8 9 8 7 8 8 9 9 9 7 7 5 5 7 6 6 8 12 13 13 13 9 10 9 6 5 5 5 4 4 3
4 4 5 5 5 5 6 11 15 11 10 8 8 8 9 8 8 8 8 9 7 7 8 10 11 7 5 6 8 7 8 11 15 14 12 9 11 8 5 5 5 5 4 4 4
1 3 4 4 4 6 9 14 14 11 9 9 9 9 9 8 8 8 8 9 8 6 9 10 9 6 6 5 6 8 10 7 10 9 12 10 9 6 5 5 5 5 5 4 4
3 3 3 1 2 5 11 14 12 9 9 8 11 9 10 9 9 9 9 7 8 6 5 7 10 7 6 5 5 6 6 10 10 15 16 11 11 10 7 6 6 6 5 4 4
3 5 1 -1 0 7 13 13 11 8 8 9 10 10 9 9 8 9 8 7 7 7 5 6 8 9 6 8 8 8 9 8 8 9 13 14 11 6 6 5 6 6 5 4 4
5 8 0 -0 9 9 11 10 9 10 9 10 9 9 9 8 9 9 9 8 6 6 8 6 7 11 9 6 5 6 8 8 11 12 10 11 10 5 5 5 5 5 5 4 3
6 5 0 2 11 11 7 8 7 9 10 10 10 8 7 8 9 8 8 7 6 6 7 6 8 11 10 9 7 8 7 7 7 8 11 12 11 5 5 5 5 5 4 4 3
4 9 6 5 6 7 8 9 10 7 9 10 11 10 9 9 7 8 8 7 6 6 6 6 7 10 12 10 8 10 8 7 8 11 11 10 9 7 6 6 5 5 4 4 3
3 7 6 11 9 8 8 8 10 11 7 8 10 10 10 10 9 9 7 7 7 6 5 6 10 8 8 7 7 8 8 8 9 8 10 9 8 7 5 5 5 4 4 4 4
7 8 6 7 8 9 8 9 9 8 8 9 10 9 8 9 8 9 7 7 8 6 6 6 9 8 9 8 8 9 8 8 8 8 8 8 8 5 4 4 4 4 5 5 4
3 3 6 8 9 9 10 9 8 7 6 6 7 9 9 7 6 6 7 7 7 7 7 8 8 9 11 8 8 11 8 8 8 7 7 9 7 5 5 5 4 4 4 4 4